| time (UTC) | temp F | wind direction | speed MPH | gust MPH | rain 1hr in | rain 24hr in | rain mn in | humidity % | barometer mb |
| 20260507054855 | 66 | 211 | 12.0 | 14.0 | 0.00 | 0.27 | 0.01 | 59 | 1007.5 |
| 20260507051007 | 65 | 173 | 6.0 | 11.0 | 0.00 | 0.27 | 0.01 | 61 | 1007.6 |
| 20260507043939 | 65 | 233 | 3.0 | 13.0 | 0.00 | 0.27 | 0.01 | 61 | 1007.6 |
| 20260507035547 | 65 | 226 | 5.0 | 10.0 | 0.00 | 0.27 | 0.01 | 61 | 1007.7 |
| 20260507031559 | 64 | 261 | 6.0 | 12.0 | 0.00 | 0.27 | 0.01 | 66 | 1007.7 |
| 20260507024045 | 63 | 230 | 11.0 | 16.0 | 0.00 | 0.27 | 0.01 | 66 | 1007.8 |
| 20260507020754 | 64 | 210 | 11.0 | 15.0 | 0.00 | 0.27 | 0.01 | 67 | 1007.9 |
| 20260507013448 | 64 | 258 | 5.0 | 16.0 | 0.00 | 0.27 | 0.01 | 65 | 1007.9 |
| 20260507010345 | 63 | 236 | 9.0 | 18.0 | 0.00 | 0.27 | 0.01 | 64 | 1007.8 |
| 20260507003426 | 62 | 216 | 14.0 | 19.0 | 0.00 | 0.27 | 0.01 | 65 | 1007.8 |
| 20260507000518 | 62 | 211 | 7.0 | 17.0 | 0.00 | 0.27 | 0.01 | 65 | 1007.7 |
| 20260506232847 | 62 | 260 | 11.0 | 18.0 | 0.00 | 0.27 | 0.01 | 67 | 1007.7 |
| 20260506225338 | 61 | 193 | 10.0 | 17.0 | 0.00 | 0.27 | 0.01 | 67 | 1007.7 |
| 20260506223028 | 60 | 218 | 11.0 | 20.0 | 0.00 | 0.27 | 0.01 | 70 | 1007.5 |
| 20260506215943 | 60 | 209 | 14.0 | 17.0 | 0.00 | 0.27 | 0.01 | 72 | 1007.4 |
| 20260506211824 | 59 | 224 | 14.0 | 18.0 | 0.00 | 0.27 | 0.01 | 74 | 1007.4 |
| 20260506203700 | 59 | 247 | 11.0 | 20.0 | 0.00 | 0.27 | 0.01 | 76 | 1007.4 |
| 20260506200120 | 59 | 213 | 8.0 | 19.0 | 0.00 | 0.27 | 0.01 | 75 | 1007.4 |
| 20260506192419 | 58 | 243 | 11.0 | 15.0 | 0.00 | 0.27 | 0.01 | 79 | 1007.3 |
| 20260506185423 | 57 | 217 | 15.0 | 20.0 | 0.00 | 0.27 | 0.01 | 77 | 1007.3 |
| 20260506181910 | 57 | 225 | 10.0 | 17.0 | 0.00 | 0.27 | 0.01 | 80 | 1007.3 |
| 20260506175323 | 56 | 227 | 8.0 | 13.0 | 0.00 | 0.27 | 0.01 | 79 | 1007.2 |
| 20260506172252 | 56 | 250 | 6.0 | 15.0 | 0.00 | 0.27 | 0.01 | 81 | 1007.0 |
| 20260506164631 | 56 | 222 | 13.0 | 18.0 | 0.00 | 0.27 | 0.01 | 82 | 1007.3 |
| 20260506161337 | 56 | 237 | 9.0 | 15.0 | 0.00 | 0.27 | 0.01 | 82 | 1007.3 |
| 20260506154721 | 55 | 252 | 8.0 | 14.0 | 0.00 | 0.27 | 0.01 | 83 | 1007.3 |
| 20260506151325 | 55 | 236 | 10.0 | 16.0 | 0.00 | 0.27 | 0.01 | 84 | 1007.2 |
| 20260506144959 | 54 | 232 | 10.0 | 15.0 | 0.00 | 0.27 | 0.01 | 85 | 1007.0 |
| 20260506141936 | 53 | 216 | 7.0 | 10.0 | 0.00 | 0.27 | 0.01 | 86 | 1007.1 |
| 20260506135616 | 52 | 248 | 6.0 | 8.0 | 0.00 | 0.27 | 0.01 | 87 | 1007.1 |
| 20260506132925 | 52 | 222 | 6.0 | 11.0 | 0.00 | 0.27 | 0.01 | 88 | 1007.2 |
| 20260506125748 | 51 | 250 | 7.0 | 11.0 | 0.00 | 0.27 | 0.01 | 89 | 1006.9 |
| 20260506123158 | 51 | 224 | 7.0 | 9.0 | 0.00 | 0.27 | 0.01 | 92 | 1006.7 |
| 20260506120617 | 51 | 205 | 6.0 | 8.0 | 0.00 | 0.27 | 0.01 | 92 | 1006.8 |
| 20260506113323 | 51 | 218 | 7.0 | 12.0 | 0.00 | 0.27 | 0.01 | 93 | 1006.8 |
| 20260506110624 | 51 | 216 | 9.0 | 10.0 | 0.00 | 0.27 | 0.01 | 93 | 1006.8 |
| 20260506103929 | 51 | 226 | 9.0 | 11.0 | 0.00 | 0.27 | 0.01 | 93 | 1006.8 |
| 20260506101234 | 51 | 191 | 9.0 | 14.0 | 0.00 | 0.27 | 0.01 | 93 | 1007.0 |
| 20260506094901 | 52 | 223 | 9.0 | 11.0 | 0.00 | 0.27 | 0.01 | 93 | 1007.0 |
| 20260506092212 | 52 | 225 | 9.0 | 13.0 | 0.00 | 0.27 | 0.01 | 93 | 1007.0 |
| 20260506090209 | 52 | 224 | 8.0 | 14.0 | 0.00 | 0.27 | 0.01 | 93 | 1006.9 |
| 20260506084338 | 52 | 242 | 6.0 | 11.0 | 0.00 | 0.27 | 0.01 | 93 | 1006.8 |
| 20260506082454 | 52 | 228 | 8.0 | 11.0 | 0.00 | 0.27 | 0.01 | 93 | 1006.7 |
| 20260506080128 | 53 | 229 | 9.0 | 14.0 | 0.01 | 0.27 | 0.01 | 93 | 1006.6 |
| 20260506071556 | 53 | 250 | 3.0 | 8.0 | 0.01 | 0.27 | 0.01 | 93 | 1006.7 |
| 20260506062254 | 53 | 199 | 5.0 | 6.0 | 0.00 | 0.26 | 0.00 | 93 | 1007.0 |